Hourly Weather Barra do Corda

Today, 29 September, Tuesday

Time Temperature Precipitation Wind Pressure Humidity
00:00 +29°C° 0 mm 2 mps 748 mmHg 54%
01:00 +28°C° 0.1 mm 2 mps 748 mmHg 65%
02:00 +27°C° 0.1 mm 2 mps 748 mmHg 76%
03:00 +26°C° 0.1 mm 2 mps 748 mmHg 87%
04:00 +25°C° 0 mm 1 mps 748 mmHg 89%
05:00 +25°C° 0 mm 1 mps 748 mmHg 91%
06:00 +24°C° 0 mm 1 mps 749 mmHg 94%
07:00 +26°C° 0 mm 2 mps 749 mmHg 84%
08:00 +28°C° 0 mm 2 mps 750 mmHg 74%
09:00 +30°C° 0 mm 3 mps 750 mmHg 65%
10:00 +33°C° 0 mm 3 mps 750 mmHg 58%
11:00 +35°C° 0 mm 3 mps 750 mmHg 51%
12:00 +37°C° 0 mm 3 mps 749 mmHg 44%
13:00 +38°C° 0 mm 2 mps 748 mmHg 39%
14:00 +39°C° 0 mm 2 mps 747 mmHg 34%
15:00 +41°C° 0 mm 2 mps 746 mmHg 29%
16:00 +39°C° 0 mm 2 mps 746 mmHg 33%
17:00 +36°C° 0 mm 1 mps 746 mmHg 36%
18:00 +34°C° 0 mm 1 mps 746 mmHg 40%
19:00 +33°C° 0 mm 1 mps 747 mmHg 45%
20:00 +31°C° 0 mm 1 mps 747 mmHg 51%
21:00 +30°C° 0 mm 2 mps 748 mmHg 56%
22:00 +29°C° 0 mm 2 mps 748 mmHg 61%
23:00 +29°C° 0 mm 2 mps 748 mmHg 65%

Tomorrow, 30 September, Wednesday

Time Temperature Precipitation Wind Pressure Humidity
00:00 +28°C° 0 mm 2 mps 748 mmHg 70%
01:00 +27°C° 0 mm 2 mps 748 mmHg 77%
02:00 +26°C° 0 mm 2 mps 748 mmHg 85%
03:00 +25°C° 0 mm 1 mps 747 mmHg 92%
04:00 +25°C° 0 mm 1 mps 748 mmHg 92%
05:00 +25°C° 0 mm 2 mps 748 mmHg 92%
06:00 +25°C° 0 mm 2 mps 748 mmHg 93%
07:00 +26°C° 0 mm 2 mps 749 mmHg 84%
08:00 +28°C° 0 mm 3 mps 750 mmHg 76%
09:00 +29°C° 0 mm 3 mps 750 mmHg 67%
10:00 +34°C° 0 mm 3 mps 750 mmHg 55%
11:00 +37°C° 0 mm 3 mps 749 mmHg 43%
12:00 +40°C° 0 mm 2 mps 748 mmHg 30%
13:00 +40°C° 0 mm 2 mps 747 mmHg 29%
14:00 +40°C° 0 mm 2 mps 746 mmHg 29%
15:00 +40°C° 0 mm 1 mps 745 mmHg 28%
16:00 +37°C° 0 mm 1 mps 745 mmHg 30%
17:00 +36°C° 0 mm 1 mps 745 mmHg 32%
18:00 +32°C° 0 mm 0 mps 745 mmHg 33%
19:00 +32°C° 0 mm 0 mps 746 mmHg 35%
20:00 +31°C° 0 mm 0 mps 746 mmHg 37%
21:00 +30°C° 0 mm 0 mps 747 mmHg 39%
22:00 +31°C° 0 mm 1 mps 747 mmHg 46%
23:00 +30°C° 0 mm 2 mps 747 mmHg 54%

Day after tomorrow, 1 October, Thursday

Time Temperature Precipitation Wind Pressure Humidity
00:00 +30°C° 0 mm 3 mps 747 mmHg 61%
01:00 +29°C° 0 mm 3 mps 747 mmHg 66%
02:00 +28°C° 0 mm 3 mps 747 mmHg 71%
03:00 +27°C° 0 mm 2 mps 747 mmHg 75%
04:00 +26°C° 0 mm 2 mps 747 mmHg 80%
05:00 +25°C° 0 mm 1 mps 748 mmHg 84%
06:00 +24°C° 0 mm 1 mps 748 mmHg 89%
07:00 +27°C° 0 mm 2 mps 749 mmHg 77%
08:00 +29°C° 0 mm 2 mps 749 mmHg 65%
09:00 +32°C° 0 mm 2 mps 750 mmHg 53%
10:00 +35°C° 0 mm 2 mps 749 mmHg 44%
11:00 +38°C° 0 mm 2 mps 748 mmHg 35%
12:00 +41°C° 0 mm 2 mps 748 mmHg 25%
13:00 +41°C° 0 mm 2 mps 747 mmHg 23%
14:00 +42°C° 0 mm 2 mps 746 mmHg 21%
15:00 +42°C° 0 mm 2 mps 745 mmHg 19%
16:00 +40°C° 0 mm 2 mps 745 mmHg 22%
17:00 +37°C° 0 mm 1 mps 745 mmHg 25%
18:00 +35°C° 0 mm 1 mps 745 mmHg 28%
19:00 +34°C° 0 mm 1 mps 745 mmHg 30%
20:00 +33°C° 0 mm 1 mps 746 mmHg 32%
21:00 +32°C° 0 mm 1 mps 746 mmHg 33%
22:00 +31°C° 0 mm 1 mps 746 mmHg 38%
23:00 +30°C° 0 mm 2 mps 747 mmHg 43%

2 October, Friday

Time Temperature Precipitation Wind Pressure Humidity
00:00 +29°C° 0 mm 3 mps 747 mmHg 48%
01:00 +28°C° 0 mm 2 mps 747 mmHg 60%
02:00 +27°C° 0 mm 2 mps 747 mmHg 71%
03:00 +25°C° 0 mm 1 mps 747 mmHg 82%
04:00 +25°C° 0 mm 1 mps 747 mmHg 86%
05:00 +24°C° 0 mm 1 mps 747 mmHg 90%
06:00 +21°C° 0 mm 0 mps 748 mmHg 94%
07:00 +26°C° 0 mm 1 mps 748 mmHg 79%
08:00 +30°C° 0 mm 1 mps 749 mmHg 64%
09:00 +34°C° 0 mm 2 mps 750 mmHg 49%
10:00 +36°C° 0 mm 2 mps 749 mmHg 41%
11:00 +39°C° 0 mm 2 mps 748 mmHg 32%
12:00 +42°C° 0 mm 3 mps 748 mmHg 24%
13:00 +42°C° 0 mm 2 mps 747 mmHg 21%
14:00 +43°C° 0 mm 2 mps 746 mmHg 19%
15:00 +43°C° 0 mm 2 mps 745 mmHg 16%
16:00 +41°C° 0 mm 2 mps 745 mmHg 18%
17:00 +39°C° 0 mm 1 mps 745 mmHg 20%
18:00 +35°C° 0 mm 1 mps 745 mmHg 22%
19:00 +34°C° 0 mm 1 mps 745 mmHg 25%
20:00 +32°C° 0 mm 1 mps 746 mmHg 27%
21:00 +28°C° 0 mm 0 mps 746 mmHg 30%
22:00 +30°C° 0 mm 1 mps 747 mmHg 31%
23:00 +30°C° 0 mm 1 mps 747 mmHg 31%

3 October, Saturday

Time Temperature Precipitation Wind Pressure Humidity
00:00 +30°C° 0 mm 1 mps 747 mmHg 32%
01:00 +28°C° 0 mm 2 mps 747 mmHg 47%
02:00 +27°C° 0 mm 2 mps 747 mmHg 61%
03:00 +26°C° 0 mm 2 mps 747 mmHg 76%
04:00 +25°C° 0 mm 2 mps 747 mmHg 82%
05:00 +24°C° 0 mm 1 mps 748 mmHg 88%
06:00 +23°C° 0 mm 1 mps 748 mmHg 93%
07:00 +26°C° 0 mm 1 mps 749 mmHg 81%
08:00 +29°C° 0 mm 2 mps 750 mmHg 68%
09:00 +33°C° 0 mm 3 mps 750 mmHg 56%
10:00 +36°C° 0 mm 2 mps 750 mmHg 45%
11:00 +39°C° 0 mm 2 mps 749 mmHg 33%
12:00 +42°C° 0 mm 2 mps 748 mmHg 22%
13:00 +43°C° 0 mm 2 mps 747 mmHg 20%
14:00 +43°C° 0 mm 2 mps 746 mmHg 17%
15:00 +45°C° 0 mm 2 mps 745 mmHg 15%
16:00 +42°C° 0 mm 1 mps 745 mmHg 17%
17:00 +39°C° 0 mm 1 mps 745 mmHg 19%
18:00 +33°C° 0 mm 0 mps 745 mmHg 22%
19:00 +34°C° 0 mm 1 mps 745 mmHg 24%
20:00 +33°C° 0 mm 1 mps 746 mmHg 26%
21:00 +31°C° 0 mm 1 mps 746 mmHg 29%
22:00 +30°C° 0 mm 1 mps 747 mmHg 35%
23:00 +29°C° 0 mm 2 mps 747 mmHg 42%

4 October, Sunday

Time Temperature Precipitation Wind Pressure Humidity
00:00 +28°C° 0 mm 2 mps 747 mmHg 48%
01:00 +27°C° 0 mm 2 mps 747 mmHg 61%
02:00 +26°C° 0 mm 2 mps 747 mmHg 73%
03:00 +25°C° 0 mm 2 mps 747 mmHg 85%
04:00 +25°C° 0 mm 2 mps 748 mmHg 88%
05:00 +24°C° 0 mm 2 mps 748 mmHg 91%
06:00 +24°C° 0 mm 1 mps 748 mmHg 95%
07:00 +26°C° 0 mm 2 mps 749 mmHg 80%
08:00 +29°C° 0 mm 3 mps 749 mmHg 66%
09:00 +33°C° 0 mm 4 mps 750 mmHg 52%
10:00 +36°C° 0 mm 3 mps 749 mmHg 43%
11:00 +39°C° 0 mm 3 mps 749 mmHg 35%
12:00 +42°C° 0 mm 3 mps 748 mmHg 27%
13:00 +42°C° 0 mm 2 mps 747 mmHg 24%
14:00 +43°C° 0 mm 2 mps 746 mmHg 20%
15:00 +45°C° 0 mm 1 mps 745 mmHg 17%
16:00 +42°C° 0 mm 1 mps 745 mmHg 19%
17:00 +40°C° 0 mm 1 mps 745 mmHg 22%
18:00 +37°C° 0 mm 1 mps 745 mmHg 24%
19:00 +36°C° 0 mm 1 mps 746 mmHg 29%
20:00 +35°C° 0 mm 2 mps 746 mmHg 33%
21:00 +34°C° 0 mm 2 mps 747 mmHg 38%
22:00 +32°C° 0 mm 2 mps 747 mmHg 47%
23:00 +31°C° 0 mm 2 mps 747 mmHg 56%
Show more